Probability
0 0 0 0 0 0 0 0 0 0 0 0 0 0 0 0 0 0 0 0 0 0 0 0 0 0 0 0 0 0 0 0 0 0 0 0 0 0 0 0 0 0 0
0 0 0 0 0 0 0 0 0 0 0 0 0 0 0 0 0 0 0 0 0 0 0 0 0 0 0 0 0 0 0 0 0 0 0 0 0 0 0 0 0 0 0
0 0 0 0 0 0 0 0 0 0 0 0 0 0 0 0 0 0 0 0 0 0 0 0 0 0 0 0 0 0 0 0 0 0 0 0 0 0 0 0 0 0 0
0 0 0 0 0 0 0 0 0 0 0 0 0 0 0 0 0 0 0 0 0 0 0 0 0 0 0 0 0 0 0 0 0 0 0 0 0 0 0 0 0 0 0
0 0 0 0 0 0 0 0 0 0 0 0 0 0 0 0 0 0 0 0 0 0 0 0 0 0 0 0 0 0 0 0 0 0 0 0 0 0 0 0 0 0 0
0 0 0 0 0 0 0 0 0 0 0 0 0 0 0 0 0 0 0 0 0 0 0 0 0 0 0 0 0 0 0 0 0 0 0 0 0 0 0 0 0 0 0
0 0 0 0 0 0 0 0 0 0 0 0 0 0 0 0 0 0 0 0 0 0 0 0 0 0 0 0 0 0 0 0 0 0 0 0 0 0 0 0 0 0 0
0 0 0 0 0 0 0 0 0 0 0 0 0 0 0 0 0 0 0 0 0 0 0 0 0 0 0 0 0 0 0 0 0 0 0 0 0 0 0 0 0 0 0
0 0 0 0 0 0 0 0 0 0 0 0 0 0 0 0 0 0 0 0 0 0 0 0 0 0 0 0 0 0 0 0 0 0 0 0 0 0 0 0 0 0 0
0 0 0 0 0 0 0 0 0 0 0 0 0 0 0 0 0 0 0 0 0 0 0 0 0 0 0 0 0 0 0 0 0 0 0 0 0 0 0 0 0 0 0
0 0 0 0 0 0 0 0 0 0 0 0 0 0 0 0 0 0 0 0 0 0 0 0 0 0 0 0 0 0 0 0 0 0 0 0 0 0 0 0 0 0 0
0 0 0 0 0 0 0 0 0 0 0 0 0 0 0 0 0 0 0 0 0 0 0 0 0 0 0 0 0 0 0 0 0 0 0 0 0 0 0 0 0 0 0
0 0 0 0 0 0 0 0 0 0 0 0 0 0 0 0 0 0 0 0 0 0 0 0 0 0 0 0 0 0 0 0 0 0 0 0 0 0 0 0 0 0 0
0 0 0 0 0 0 0 0 0 0 0 0 0 0 0 0 0 0 0 0 0 0 0 0 0 0 0 0 0 0 0 0 0 0 0 0 0 0 0 0 0 0 0
0 0 0 0 0 0 0 0 0 0 0 0 0 0 0 0 0 0 0 0 0 0 0 0 0 0 0 0 0 0 0 0 0 0 0 0 0 0 0 0 0 0 0
0 0 0 0 0 0 0 0 0 0 0 0 0 0 0 0 0 0 0 0 0 0 0 0 0 0 0 0 0 0 0 0 0 0 0 0 0 0 0 0 0 0 0
0 0 0 0 0 0 0 0 0 0 0 0 0 0 0 0 0 0 0 0 0 0 0 0 0 0 0 0 0 0 0 0 0 0 0 0 0 0 0 0 0 0 0
0 0 0 0 0 0 0 0 0 0 0 0 0 0 0 0 0 0 0 0 0 0 0 0 0 0 0 0 0 0 0 0 0 0 0 0 0 0 0 0 0 0 0
0 0 0 0 0 0 0 0 0 0 0 0 0 0 0 0 0 0 0 0 0 0 0 0 0 0 0 0 0 0 0 0 0 0 0 0 0 0 0 0 0 0 0
0 0 0 0 0 0 0 0 0 0 0 0 0 0 0 0 0 0 0 0 0 0 0 0 0 0 0 0 0 0 0 0 0 0 0 0 0 0 0 0 0 0 0
0 0 0 0 0 0 0 0 0 0 0 0 0 0 0 0 0 0 0 0 0 0 0 0 0 0 0 0 0 0 0 0 0 0 0 0 0 0 0 0 0 0 0
0 0 0 0 0 0 0 0 0 0 0 0 0 0 0 0 0 0 0 0 0 0 0 0 0 0 0 0 0 0 0 0 0 0 0 0 0 0 0 0 0 0 0
0 0 0 0 0 0 0 0 0 0 0 0 0 0 0 0 0 0 0 0 0 0 0 0 0 0 0 0 0 0 0 0 0 0 0 0 0 0 0 0 0 0 0
0 0 0 0 0 0 0 0 0 0 0 0 0 0 0 0 0 0 0 0 0 0 0 0 0 0 0 0 0 0 0 0 0 0 0 0 0 0 0 0 0 0 0
0 0 0 0 0 0 0 0 0 0 0 0 0 0 0 0 0 0 0 0 0 0 0 0 0 0 0 0 0 0 0 0 0 0 0 0 0 0 0 0 0 0 0
0 0 0 0 0 0 0 0 0 0 0 0 0 0 0 0 0 0 0 0 0 0 0 0 0 0 0 0 0 0 0 0 0 0 0 0 0 0 0 0 0 0 0
Wind_Speed
9 9 9 8 8 8 8 7 6 4 4 3 1 1 1 1 3 4 4 4 4 4 4 4 4 4 3 3 3 3 3 3 7 6 4 5 7 9 9 7 8 8 10
8 8 8 7 7 7 6 5 5 4 3 2 2 3 5 6 6 6 5 4 4 4 5 5 6 5 5 5 4 5 5 5 5 10 6 5 7 8 8 9 9 9 7
8 7 7 7 7 7 6 5 5 5 6 6 6 7 6 6 5 4 3 3 3 4 5 5 6 6 6 6 6 6 5 6 5 8 10 6 5 6 6 7 8 6 8
7 7 6 6 6 6 6 7 7 7 7 6 5 5 5 4 4 3 2 3 4 5 6 6 6 6 7 7 6 6 7 7 8 9 10 8 6 6 5 5 6 5 6
8 8 7 7 7 8 8 8 7 6 5 4 4 4 3 3 2 2 3 5 5 7 7 7 7 11 13 9 9 8 8 8 9 9 9 8 7 5 5 5 7 6 6
10 9 8 8 8 7 6 5 5 5 5 5 5 3 1 1 2 5 6 5 6 7 8 8 9 10 13 17 19 19 17 13 12 11 10 10 10 7 6 6 7 7 6
9 8 7 6 6 5 5 5 5 4 4 4 4 3 1 0 2 6 10 6 6 7 7 7 9 10 13 9 13 18 18 21 21 15 13 12 10 8 8 9 9 9 9
6 5 3 4 4 5 5 5 4 2 2 2 2 3 2 2 3 6 10 7 6 7 7 8 9 10 10 11 11 12 12 12 15 11 10 11 11 10 10 11 11 9 8
3 2 2 3 5 5 4 3 2 2 2 2 3 4 3 1 1 5 8 5 6 8 8 9 10 10 13 15 13 12 12 12 13 13 13 13 14 15 12 7 6 6 6
3 2 3 5 5 4 3 2 2 3 3 4 4 4 2 1 4 7 9 4 6 7 8 9 12 12 15 17 11 10 11 11 11 10 9 8 7 6 6 3 4 4 3
4 6 6 6 5 4 3 3 4 4 4 4 4 4 3 4 6 9 12 6 6 8 8 7 8 14 17 16 13 9 11 12 8 7 6 5 4 2 2 3 3 3 3
6 7 6 5 5 5 5 4 4 4 3 3 3 4 4 5 7 10 14 13 11 7 7 7 9 16 17 16 11 12 14 10 5 4 4 4 4 3 2 3 4 4 3
7 6 5 5 4 4 4 4 3 3 2 2 3 3 4 5 6 11 13 15 15 8 7 13 16 16 14 10 11 13 9 5 4 4 3 3 3 4 4 4 4 4 4
7 5 4 4 3 3 3 3 3 2 2 2 3 4 5 5 5 7 8 8 11 9 8 11 14 13 10 10 9 7 5 5 5 4 4 2 3 3 4 4 4 4 3
6 5 4 3 3 2 2 2 3 2 2 1 1 2 4 5 7 12 8 6 6 7 8 5 5 7 7 7 7 6 6 6 6 5 4 3 3 4 4 4 4 4 5
5 4 3 2 2 2 2 1 1 2 3 3 3 3 4 7 11 12 12 12 12 13 6 4 6 6 6 7 7 6 6 6 6 5 4 4 5 5 5 5 4 5 6
5 4 3 2 2 2 3 3 2 2 3 5 6 6 6 8 9 11 13 12 10 9 4 5 5 6 6 6 6 6 6 6 5 4 4 4 4 5 5 6 6 6 6
3 3 3 2 2 2 3 3 2 2 1 3 4 5 8 9 9 10 11 9 6 6 5 5 6 6 6 6 7 6 6 6 4 4 3 4 4 5 5 6 6 7 6
2 1 1 2 2 2 2 2 2 2 1 1 2 4 7 8 7 8 8 5 4 5 6 6 6 5 6 6 6 7 7 6 5 4 3 3 2 3 3 4 4 7 7
0 0 2 2 1 1 2 2 2 1 1 1 1 2 4 4 4 5 4 4 4 5 5 6 6 6 6 6 7 7 7 6 7 5 5 3 1 0 0 1 2 3 4
2 2 2 2 2 2 3 3 2 2 2 1 1 2 4 3 4 5 4 4 4 5 5 6 6 6 6 6 6 7 8 6 6 6 6 5 2 1 2 1 1 1 2
2 2 2 2 2 3 3 3 2 2 2 2 1 2 5 3 4 4 4 4 4 4 4 4 5 5 5 5 6 6 7 7 7 7 7 6 4 3 2 1 2 3 4
4 4 4 3 3 4 4 2 2 2 2 2 2 2 3 3 4 4 5 5 5 5 4 4 5 5 5 5 4 4 5 6 6 7 7 6 4 4 4 4 5 6 6
4 4 4 3 3 3 3 2 2 2 2 1 1 2 2 3 3 5 5 5 5 5 5 5 5 7 9 7 6 5 4 6 6 5 6 5 4 4 3 4 5 6 7
3 3 3 3 3 3 3 2 2 3 3 2 3 3 4 4 4 5 5 5 6 6 7 7 6 7 10 10 10 9 10 11 8 6 5 4 5 4 4 5 5 6 6
4 4 3 3 3 3 3 3 3 3 4 4 4 4 4 4 5 5 5 6 6 6 7 7 10 10 11 9 11 11 10 10 10 10 6 4 6 6 5 5 7 6 6
Wind_Direction
92 92 93 92 95 97 101 108 114 116 118 120 134 166 252 351 38 66 67 59 52 20 359 344 317 299 285 282 276 268 261 254 281 285 256 269 275 277 284 283 278 274 276
97 94 91 89 89 91 93 94 96 93 75 57 44 47 62 74 75 77 63 45 26 355 333 322 306 299 285 273 268 263 261 252 259 286 287 274 270 272 274 276 284 286 279
103 97 92 89 90 94 93 86 76 64 53 49 60 80 87 84 78 71 62 28 352 324 310 302 295 290 285 280 275 269 267 273 258 276 287 276 270 274 279 281 281 283 287
101 94 89 89 91 92 82 70 64 64 65 66 82 100 102 98 84 61 32 355 331 317 307 300 296 292 285 284 287 279 281 279 273 275 282 280 269 265 261 271 286 279 284
96 89 85 83 80 76 72 70 72 74 76 76 82 100 112 99 75 39 355 341 326 316 308 299 299 308 312 311 310 302 297 291 287 282 284 282 274 270 265 265 279 282 278
86 84 80 78 77 76 81 89 89 80 66 60 59 69 86 84 51 16 355 326 315 308 304 301 303 305 311 315 312 308 303 298 296 289 286 282 278 269 268 269 271 277 280
78 78 77 80 88 94 98 93 87 79 68 64 54 54 61 348 43 12 352 333 310 303 302 304 310 309 312 305 307 308 302 296 290 286 284 284 282 274 271 273 268 266 266
75 73 79 99 104 105 100 93 84 77 76 69 37 25 36 60 57 10 344 332 308 303 302 300 299 303 305 307 308 301 295 292 287 285 276 276 275 272 268 272 274 272 266
89 97 116 117 113 106 99 90 75 72 54 41 33 28 44 52 360 341 343 317 307 306 306 307 308 305 305 309 309 301 299 298 299 289 279 278 277 277 278 277 271 272 274
127 104 97 106 106 106 102 81 61 71 63 50 35 26 35 272 285 332 349 323 318 318 313 309 310 307 310 315 313 304 303 307 310 310 305 300 297 302 320 318 314 302 295
113 99 98 104 107 102 83 73 72 74 62 44 24 2 352 328 320 338 345 336 321 315 311 312 311 313 318 320 318 308 307 311 309 313 318 326 332 342 0 347 329 312 308
117 109 104 98 93 90 86 76 73 76 59 26 5 350 338 334 334 335 334 330 326 312 308 309 311 316 322 323 324 323 326 328 325 331 342 349 346 345 339 323 318 317 318
118 114 109 95 87 101 108 100 75 62 53 13 0 345 330 327 328 332 330 327 330 326 309 312 318 321 326 326 326 331 337 341 338 337 340 345 341 340 337 327 330 335 343
127 128 124 117 114 114 120 122 112 92 58 18 355 335 323 322 327 332 327 323 327 329 322 317 319 325 332 329 332 338 339 332 327 329 340 347 338 340 348 345 343 348 354
132 141 142 149 156 155 147 155 150 167 167 167 289 298 312 318 316 318 318 317 321 320 320 317 332 337 339 340 342 342 340 341 345 350 359 1 354 359 4 359 4 8 18
129 147 159 168 172 166 153 104 160 181 185 203 258 293 290 294 314 329 339 342 343 340 343 339 339 339 338 340 342 341 339 349 356 3 9 14 18 20 18 15 17 26 31
137 160 176 180 176 174 171 176 213 271 255 261 273 303 325 334 343 347 347 341 342 349 356 343 339 339 339 340 342 344 347 352 2 11 14 16 17 19 23 28 30 35 39
137 159 170 184 187 180 177 180 181 189 253 292 294 307 340 348 348 351 349 348 352 358 349 341 340 340 341 343 345 346 349 357 7 8 0 10 22 29 35 36 37 39 42
144 142 152 167 176 173 164 156 160 175 192 305 342 337 337 334 334 348 355 359 346 343 341 340 339 341 343 345 347 349 354 360 0 351 339 347 18 36 43 40 39 36 42
270 257 150 152 141 138 133 133 144 150 128 61 1 328 324 336 346 345 348 342 341 339 339 339 342 345 346 347 349 352 355 357 353 345 335 334 333 316 50 68 59 51 50
246 266 147 114 98 111 124 131 138 134 130 134 275 299 331 338 340 341 341 339 336 334 336 338 342 345 347 346 348 352 354 352 347 343 343 344 341 248 235 210 174 108 74
126 111 99 96 82 93 115 128 125 118 131 157 258 307 335 346 344 343 340 337 331 325 324 326 331 334 337 342 344 346 348 348 344 342 339 340 352 1 357 29 85 85 82
88 89 89 87 83 90 100 113 104 104 134 190 251 306 335 340 343 346 346 343 338 334 333 336 338 341 342 337 335 336 336 329 320 315 321 331 350 13 30 49 74 88 90
97 101 106 102 91 86 93 99 91 87 111 156 321 347 347 340 341 349 352 351 352 352 352 351 352 349 350 347 336 332 326 317 308 302 314 334 349 359 24 51 78 100 104
88 96 108 112 105 96 84 81 76 66 63 53 38 33 26 19 10 5 1 359 3 6 4 0 356 355 352 347 342 336 330 333 339 337 332 348 0 10 37 64 92 107 115
66 75 91 100 99 92 81 75 72 69 63 60 54 46 35 26 18 10 6 7 8 6 4 0 357 359 359 352 342 337 338 343 348 353 356 13 28 41 60 74 92 100 107